CW8081 Weather Reports


time (UTC)temp
F
wind
direction
speed
knots
gust
knots
rain 1hr
in
rain 24hr
in
rain mn
in
humidity
%
barometer
mb
20260903121605 90 349 0.0 0.0 0.00 0.02 0.02 53 1012.5
20260903121105 90 358 0.0 0.0 0.00 0.02 0.02 54 1012.5
20260903120605 90 346 0.0 0.0 0.00 0.02 0.02 54 1012.8
20260903120106 90 341 0.0 0.0 0.00 0.02 0.02 55 1012.8
20260903114605 89 326 0.0 0.0 0.00 0.02 0.02 55 1012.8
20260903114104 90 0 0.0 0.0 0.00 0.02 0.02 56 1012.8
20260903113605 90 356 0.0 0.0 0.00 0.02 0.02 55 1012.8
20260903111604 89 353 0.0 0.0 0.00 0.02 0.02 56 1013.3
20260903111104 89 333 0.0 0.0 0.00 0.02 0.02 56 1013.3
20260903110604 88 353 0.0 0.0 0.00 0.02 0.02 57 1013.3
20260903110106 88 328 0.0 0.0 0.00 0.02 0.02 58 1013.3
20260903104104 88 282 0.0 0.0 0.00 0.02 0.02 57 1013.3
20260903103604 88 354 0.0 0.0 0.00 0.02 0.02 56 1013.6
20260903101604 88 298 0.0 0.0 0.00 0.02 0.02 52 1013.6
20260903101105 88 295 0.0 0.0 0.00 0.02 0.02 53 1013.7
20260903100605 88 315 0.0 0.0 0.00 0.02 0.02 54 1013.7
20260903100105 88 280 0.0 0.0 0.00 0.02 0.02 54 1014.3
20260903094104 87 309 0.0 0.0 0.00 0.02 0.02 58 1014.3
20260903090605 87 306 0.0 0.0 0.00 0.02 0.02 54 1014.3
20260903090105 87 358 0.0 0.0 0.00 0.02 0.02 53 1014.3
20260903084604 85 0 0.0 0.0 0.00 0.02 0.02 56 1014.4
20260903084104 85 10 0.0 0.0 0.00 0.02 0.02 56 1014.4
20260903081105 83 333 0.0 0.0 0.00 0.02 0.02 63 1014.6
20260903080105 82 304 0.0 0.0 0.00 0.02 0.02 65 1014.6
20260903074604 81 319 0.0 0.0 0.00 0.02 0.02 68 1014.7
20260903074104 80 341 0.0 0.0 0.00 0.02 0.02 69 1014.7
20260903073604 79 358 0.0 0.0 0.00 0.02 0.02 70 1014.7
20260903073105 79 303 0.0 0.0 0.00 0.02 0.02 72 1014.7
20260903071105 78 287 0.0 0.0 0.00 0.02 0.02 75 1014.7
20260903064605 77 335 0.0 0.0 0.00 0.02 0.02 79 1014.6
20260903061605 75 315 0.0 0.0 0.00 0.02 0.02 83 1014.8
20260903060105 74 320 0.0 0.0 0.00 0.02 0.02 85 1015.0
20260903053604 73 294 0.0 0.0 0.00 0.02 0.02 86 1015.0
20260903051104 72 294 0.0 0.0 0.01 0.02 0.02 86 1014.9
20260903050105 72 0 0.0 0.0 0.01 0.02 0.02 86 1014.9
20260903041604 72 359 0.0 0.0 0.00 0.02 0.01 85 1014.6
20260903041104 72 313 0.0 0.0 0.00 0.02 0.01 85 1014.6
20260903040105 72 313 0.0 0.0 0.00 0.02 0.01 85 1014.6
20260903034604 72 315 0.0 0.0 0.00 0.02 0.01 85 1014.6
20260903033605 72 315 0.0 0.0 0.00 0.02 0.01 85 1014.7
20260903031604 73 315 0.0 0.0 0.00 0.02 0.01 86 1014.7
20260903030105 73 315 0.0 0.0 0.00 0.02 0.01 86 1014.7
20260903024104 73 330 0.0 0.0 0.00 0.02 0.01 86 1014.7
20260903023610 73 315 0.0 0.0 0.00 0.03 0.01 86 1014.7
20260903021105 73 0 0.0 0.0 0.00 0.03 0.01 84 1014.4
20260903020605 73 310 0.0 0.0 0.00 0.03 0.01 83 1014.4
20260903014604 74 300 0.0 0.0 0.00 0.04 0.01 81 1014.9
20260903013105 75 0 0.0 0.0 0.00 0.05 0.01 79 1014.9
20260903011605 75 355 0.0 0.0 0.00 0.05 0.01 77 1014.9
20260903010604 76 0 0.0 0.0 0.00 0.05 0.01 76 1014.9
20260903010104 76 0 0.0 0.0 0.00 0.05 0.01 75 1014.9
20260903003604 77 0 0.0 0.0 0.00 0.05 0.01 72 1015.0
20260903003105 77 0 0.0 0.0 0.00 0.05 0.01 71 1015.0
20260903000604 76 0 0.0 0.0 0.01 0.05 0.01 72 1014.9
20260903000105 76 0 4.3 58.2 0.01 0.05 0.01 73 1014.9
20260902231105 74 0 0.0 0.0 0.00 0.04 0.00 81 1015.0
20260902230604 73 3 0.0 0.0 0.00 0.04 0.00 82 1015.9
20260902224604 72 33 0.0 0.0 0.00 0.04 0.00 85 1015.9
20260902224104 71 12 0.0 0.0 0.00 0.04 0.00 85 1015.9
20260902223104 72 36 0.0 0.0 0.00 0.04 0.00 85 1015.9
20260902221105 74 41 0.0 0.0 0.00 0.04 0.00 84 1015.9
20260902220605 74 21 0.0 0.0 0.00 0.04 0.00 83 1015.6
20260902220105 75 20 0.0 0.0 0.00 0.04 0.00 81 1015.7
20260902214604 78 26 0.0 0.0 0.00 0.04 0.00 73 1014.5
20260902214104 78 0 0.0 0.0 0.00 0.04 0.00 69 1014.5
20260902213605 78 17 0.0 0.0 0.00 0.04 0.00 69 1014.5
20260902211106 76 0 0.0 0.0 0.00 0.04 0.00 71 1014.5
20260902210604 76 3 0.0 0.0 0.00 0.04 0.00 71 1014.5
20260902204106 77 0 0.0 0.0 0.00 0.04 0.04 70 1014.2
20260902203604 77 8 0.0 0.0 0.00 0.04 0.04 71 1014.2
20260902203104 78 24 0.0 0.0 0.00 0.04 0.04 70 1014.1
20260902200105 82 0 0.0 0.0 0.00 0.04 0.04 71 1014.1
20260902194604 82 0 0.0 0.0 0.00 0.04 0.04 71 1014.1
20260902194104 82 0 0.0 0.0 0.00 0.04 0.04 71 1014.1
20260902190105 83 0 0.0 0.0 0.00 0.04 0.04 69 1014.2
20260902184604 83 0 0.0 0.0 0.00 0.04 0.04 68 1014.0
20260902184104 83 0 0.0 0.0 0.00 0.04 0.04 68 1014.0
20260902183604 83 0 0.0 0.0 0.00 0.04 0.04 68 1014.0
20260902181604 83 0 0.0 0.0 0.00 0.04 0.04 67 1014.0
20260902181105 83 0 0.0 0.0 0.00 0.04 0.04 66 1013.6
20260902180604 84 0 0.0 0.0 0.00 0.04 0.04 66 1013.6
20260902174604 84 0 0.0 0.0 0.00 0.04 0.04 66 1013.6
20260902173604 84 0 0.0 0.0 0.00 0.04 0.04 66 1013.6
20260902173104 84 0 0.0 0.0 0.00 0.04 0.04 66 1013.6
20260902171605 85 0 0.0 0.0 0.00 0.04 0.04 65 1013.4
20260902171104 85 0 0.0 0.0 0.00 0.04 0.04 65 1013.4
20260902170604 85 0 0.0 0.0 0.00 0.04 0.04 64 1013.4
20260902170105 85 0 0.0 0.0 0.00 0.04 0.04 64 1013.4
20260902163604 86 0 0.0 0.0 0.00 0.04 0.04 60 1013.4
20260902163105 86 0 0.0 0.0 0.00 0.04 0.04 61 1013.4
20260902161606 86 0 0.0 0.0 0.00 0.04 0.04 61 1013.6
20260902153604 88 0 0.0 0.0 0.00 0.04 0.04 61 1013.6
20260902153104 88 357 0.0 0.0 0.00 0.04 0.04 60 1013.0
20260902151604 89 0 0.0 0.0 0.00 0.04 0.04 57 1013.0
20260902150604 90 0 0.0 0.0 0.00 0.04 0.04 57 1013.3
20260902144105 91 0 0.0 0.0 0.00 0.04 0.04 54 1013.3
20260902143104 91 0 0.0 0.0 0.00 0.04 0.04 56 1013.3
20260902141604 92 0 0.0 0.0 0.00 0.04 0.04 52 1013.3
20260902140604 92 0 0.0 0.0 0.00 0.04 0.04 50 1013.7
20260902134604 94 0 0.0 0.0 0.00 0.04 0.04 47 1013.7
20260902133604 94 0 0.0 0.0 0.00 0.04 0.04 47 1013.9
20260902131604 95 0 0.0 0.0 0.00 0.04 0.04 45 1015.6
20260902131104 95 0 0.0 0.0 0.00 0.04 0.04 44 1015.6
20260902124604 94 359 0.0 0.0 0.00 0.04 0.04 46 1015.6
20260902124104 94 0 0.0 0.0 0.00 0.04 0.04 46 1015.6